GEFSGL_con_probscp_198.txt.gz
Probability
33 30 27 26 26 24 20 16 14 14 16 16 14 12 11 11 12 12 11 8 7 6 6 6 4 4 4 4 4 6 6 3 1 1 2 2 1 0 0 0 0 0 1
35 34 32 31 28 25 22 20 19 17 17 16 14 11 10 10 11 11 10 8 7 6 6 6 4 4 4 4 4 6 5 3 1 2 3 1 0 0 0 0 0 0 1
40 39 38 35 30 25 23 23 22 19 17 15 13 10 9 9 9 9 9 7 6 6 6 6 4 4 4 4 4 5 5 2 1 3 2 1 0 0 0 0 0 0 1
45 44 41 37 31 25 24 23 20 17 15 13 12 10 10 8 7 7 7 5 4 5 6 6 5 4 3 3 3 4 3 2 2 3 2 0 0 1 0 0 0 0 0
48 47 45 39 33 28 26 25 21 16 14 12 11 10 9 7 6 6 6 5 4 5 5 5 4 3 2 2 1 2 2 2 2 2 1 0 0 1 1 0 0 0 0
51 48 46 42 37 33 30 27 22 16 13 11 10 8 7 6 5 4 5 5 4 4 4 3 2 1 1 1 0 0 1 1 1 1 1 0 0 1 1 0 0 0 0
54 50 47 44 41 37 32 27 22 16 13 10 8 7 7 6 4 4 4 5 5 4 3 3 1 0 0 0 0 0 0 0 0 1 1 1 1 1 1 0 0 0 0
55 50 47 46 42 36 30 25 21 17 12 9 7 6 6 6 5 3 3 4 6 5 4 3 2 1 0 0 0 0 0 0 0 1 1 2 2 2 1 1 0 0 0
55 50 46 43 37 29 24 21 19 16 11 8 6 6 6 6 5 2 1 3 5 6 5 4 2 1 0 0 0 0 0 0 0 0 1 1 1 2 2 2 1 0 0
52 46 40 36 30 22 18 17 16 14 10 7 6 6 6 6 5 2 1 3 4 6 5 3 2 0 0 0 1 1 1 1 1 0 0 0 1 1 2 3 2 1 0
48 42 35 31 25 18 15 15 14 12 9 7 6 6 6 6 4 1 1 2 3 4 4 3 2 1 0 0 1 2 2 2 2 1 0 0 1 2 2 3 2 1 1
48 42 35 30 23 18 16 15 13 11 8 6 4 4 5 5 4 1 0 1 1 3 3 3 2 1 0 0 0 1 1 1 1 1 0 0 1 1 2 2 2 2 2
47 42 36 30 23 19 18 15 12 9 7 5 3 3 4 4 3 2 1 0 0 1 2 1 1 0 0 0 0 0 0 0 0 0 0 1 1 2 2 2 1 2 2
43 40 35 28 22 19 17 13 10 8 6 5 4 4 3 3 3 2 1 0 0 0 0 0 0 0 0 0 0 0 0 0 0 0 0 1 2 3 4 3 1 1 1
41 37 31 25 20 17 13 10 7 6 5 4 4 4 3 2 1 1 0 0 0 0 0 1 1 1 0 0 0 0 0 0 1 1 0 1 1 3 4 3 1 0 0
39 34 27 21 17 12 9 7 4 2 2 2 2 1 1 1 0 0 0 0 0 0 0 1 2 2 1 1 1 0 0 0 1 1 1 0 1 2 2 1 1 1 1
35 30 25 19 14 10 7 6 4 2 1 0 0 0 0 0 0 0 0 0 0 0 0 1 1 2 2 2 2 1 1 1 1 1 1 2 1 1 1 1 1 2 2
31 27 22 18 13 10 8 7 6 5 2 1 0 0 0 0 0 0 0 0 0 0 0 0 0 1 2 3 3 3 3 3 2 2 3 3 3 2 2 2 3 3 3
27 23 18 15 12 9 9 8 6 5 2 1 0 0 0 0 0 0 0 0 0 0 0 0 0 1 1 2 3 4 4 3 3 3 3 3 3 3 3 3 3 2 1
22 17 12 11 9 7 6 6 5 3 1 0 0 0 0 0 0 0 0 0 0 0 0 0 0 0 1 2 3 3 3 2 1 1 2 2 3 3 3 3 3 2 1
19 14 9 8 7 5 4 4 4 2 1 0 0 0 0 0 0 0 0 0 0 0 0 0 0 0 1 2 3 3 3 2 0 0 1 1 1 2 2 3 3 2 1
18 14 10 7 7 5 4 3 3 3 1 0 0 0 0 0 0 0 0 0 0 0 0 0 0 0 1 1 2 3 3 2 1 1 1 1 0 1 1 1 2 1 0
15 12 9 8 7 5 3 3 3 3 2 1 0 0 0 0 0 0 0 0 0 0 0 0 0 0 0 0 1 2 3 3 3 2 2 2 1 0 0 0 0 0 0
13 10 8 7 6 4 3 3 3 3 2 1 0 0 0 0 0 0 0 0 0 0 0 0 0 0 0 0 0 1 2 2 2 3 3 3 1 0 0 0 0 0 0
11 9 6 5 4 2 2 1 2 2 2 1 1 1 0 0 0 0 0 0 0 0 0 0 0 0 0 0 0 0 1 1 1 1 2 2 1 0 0 0 0 0 0
9 7 4 4 3 1 1 1 1 2 2 2 2 2 1 0 0 0 0 0 0 0 0 0 0 0 0 0 0 0 0 0 0 0 1 1 1 0 0 0 0 0 0

GEFSGL_con_probscp_204.txt.gz
Probability
9 7 5 4 2 2 2 4 4 4 3 2 2 1 1 1 2 3 3 3 4 2 0 0 0 0 0 0 0 0 0 0 0 0 0 0 0 0 0 0 0 0 0
10 9 8 6 5 5 5 5 5 4 4 4 4 3 2 1 2 2 2 3 3 2 1 1 0 0 0 0 0 0 0 0 0 0 0 0 0 0 0 0 0 0 0
13 13 13 12 10 10 9 8 7 6 5 6 5 4 3 3 3 3 3 3 3 3 3 2 1 0 0 0 0 0 0 0 0 0 0 0 0 0 0 0 0 0 0
19 18 17 16 14 14 13 11 8 7 6 6 6 5 4 4 4 3 3 3 3 3 3 2 1 0 0 0 0 0 0 0 0 0 0 0 0 0 0 0 0 0 0
24 23 21 18 16 14 13 11 8 6 6 6 6 6 5 5 5 4 3 3 3 3 3 2 0 0 0 0 0 0 0 0 0 0 0 0 0 0 0 0 0 0 0
27 25 22 19 16 13 10 7 5 4 5 6 6 6 6 6 6 5 4 4 4 3 3 2 1 0 0 0 0 0 0 0 0 0 0 0 0 0 0 0 0 0 0
29 27 23 19 15 11 7 4 2 2 3 4 4 4 4 5 6 5 4 4 5 4 3 2 1 0 0 0 0 0 0 0 0 0 0 0 0 0 0 0 0 0 0
29 27 25 21 15 10 5 3 3 2 1 1 2 2 3 4 4 4 3 3 4 4 3 1 0 0 0 0 0 0 0 0 0 0 0 0 0 0 0 0 0 0 0
29 26 24 21 14 8 6 4 4 3 1 1 2 3 3 3 3 3 1 1 2 3 1 0 0 0 0 0 0 0 0 0 0 0 0 0 0 0 0 0 0 0 0
26 23 21 17 12 8 7 6 5 4 3 3 3 3 3 3 3 2 1 0 1 1 0 0 0 0 0 0 0 0 0 0 0 0 0 0 0 0 0 0 0 0 0
21 19 16 13 10 8 8 7 5 4 3 3 3 3 3 3 2 1 0 0 0 0 0 0 0 0 0 0 0 0 0 0 0 0 0 0 0 0 0 0 0 0 0
19 17 15 12 10 8 7 6 5 3 3 4 3 3 3 2 1 0 0 0 0 0 0 0 0 0 0 0 0 0 0 0 0 0 0 0 0 0 0 0 0 0 0
20 17 14 11 9 7 6 5 3 2 3 4 3 2 2 1 0 0 0 0 0 0 0 0 0 0 0 0 0 0 0 0 0 0 0 0 0 0 0 0 0 0 0
21 18 13 11 8 6 5 3 1 1 1 2 1 1 1 0 0 0 0 0 0 0 0 0 0 0 0 0 0 0 0 0 0 0 0 0 0 0 0 0 0 1 1
21 19 15 11 8 6 4 1 0 0 0 0 0 0 0 0 0 0 0 0 0 0 0 0 0 0 0 0 0 0 0 0 0 0 0 0 0 0 0 0 0 0 0
21 19 16 12 8 5 3 1 1 0 0 0 0 0 0 0 0 0 0 0 0 0 0 0 0 0 0 0 0 0 0 0 0 0 0 0 0 0 0 0 0 0 0
23 21 17 12 8 4 3 3 2 1 0 0 0 0 0 0 0 0 0 0 0 0 0 0 0 0 0 0 0 0 0 0 0 0 0 0 0 0 0 0 0 0 0
25 22 16 11 6 4 3 3 3 2 1 0 0 0 0 0 0 0 0 0 0 0 0 0 0 0 0 0 0 0 0 0 0 0 0 0 0 0 0 0 0 0 0
25 22 15 9 6 4 3 3 2 2 1 0 0 0 0 0 0 0 0 0 0 0 0 0 0 0 0 0 0 0 0 0 0 0 0 0 0 0 0 0 0 0 0
22 19 14 9 6 4 3 2 1 1 0 0 0 0 0 0 0 0 0 0 0 0 0 0 0 0 0 0 0 0 0 0 0 0 0 0 0 0 0 0 0 0 0
19 16 12 10 8 5 3 3 2 1 1 0 0 0 0 0 0 0 0 0 0 0 0 0 0 0 0 0 0 0 0 0 0 0 0 0 0 0 0 0 0 0 0
15 12 10 8 7 4 3 3 3 3 2 1 1 0 0 0 0 0 0 0 0 0 0 0 0 0 0 0 0 0 0 0 0 0 0 0 0 0 0 0 0 0 0
11 10 8 6 4 3 2 2 3 3 3 3 2 1 0 0 0 0 0 0 0 0 0 0 0 0 0 0 0 0 0 0 0 0 0 0 0 0 0 0 0 0 0
10 8 6 5 3 2 1 1 1 2 2 3 3 2 1 0 0 0 0 0 0 0 0 0 0 0 0 0 0 0 0 0 0 0 0 0 0 0 0 0 0 0 0
11 8 6 4 3 3 1 0 0 1 1 1 2 2 1 0 0 0 0 0 0 0 0 0 0 0 0 0 0 0 0 0 0 0 0 0 0 0 0 0 0 0 0
11 9 6 4 3 3 2 1 0 0 0 0 1 1 0 0 0 0 0 0 0 0 0 0 0 0 0 0 0 0 0 0 0 0 0 0 0 0 0 0 0 0 0

GEFSGL_con_probscp_210.txt.gz
Probability
6 6 4 4 5 5 4 2 1 0 1 0 0 0 0 0 0 0 0 0 1 1 2 3 2 1 1 1 0 0 0 0 0 0 0 0 0 0 0 0 0 0 0
7 7 6 6 7 7 5 4 2 1 1 1 0 1 1 1 1 1 1 1 2 2 3 3 2 1 0 0 0 0 0 0 0 0 0 0 0 0 0 0 0 0 0
11 11 10 9 9 9 8 7 5 3 2 1 0 1 2 2 2 2 2 3 3 3 3 3 2 1 0 0 0 0 0 0 0 0 0 0 0 0 0 0 0 0 0
17 15 13 11 11 11 11 9 6 3 2 1 0 1 2 2 3 4 4 3 3 3 3 3 2 1 0 0 0 0 0 0 0 0 0 0 0 0 0 0 0 0 0
22 19 15 13 12 12 12 10 5 3 1 0 0 0 1 1 2 3 4 3 3 3 3 3 3 1 0 0 0 0 0 0 0 0 0 0 0 0 0 0 0 0 0
24 19 14 13 13 12 12 9 5 2 1 0 0 0 1 1 1 1 2 3 3 3 3 3 3 2 1 1 0 0 0 0 0 0 0 0 0 0 0 0 0 0 0
23 18 14 14 13 12 10 8 4 2 1 1 1 1 1 1 0 0 1 2 3 3 3 3 3 3 2 1 0 0 0 0 0 0 0 0 0 0 0 0 0 0 0
22 18 14 15 14 12 9 7 4 2 2 2 2 2 2 1 1 1 1 2 3 3 3 3 3 3 1 1 0 0 0 0 0 0 0 0 0 1 0 0 0 0 0
22 19 17 16 14 10 7 5 3 2 1 1 2 2 2 2 2 2 2 3 3 3 3 3 3 2 1 0 0 0 0 0 0 0 0 0 0 0 0 0 0 0 0
21 19 17 15 11 6 4 4 3 2 1 1 1 1 2 3 2 2 2 2 2 3 3 2 1 1 0 0 0 0 0 0 0 0 0 0 0 0 0 0 0 0 0
19 17 16 14 9 4 2 3 3 3 1 0 0 1 2 2 1 1 1 1 1 1 2 1 0 0 0 0 0 0 0 0 0 0 0 0 0 0 0 0 0 1 1
19 17 16 15 11 6 3 3 3 2 1 0 0 1 2 2 1 0 0 0 0 0 0 0 0 0 0 0 0 0 0 0 0 0 0 0 0 0 0 0 0 1 1
21 19 16 15 13 10 6 3 3 1 0 0 0 1 1 1 0 0 0 0 0 0 0 0 0 0 0 0 0 0 0 0 0 0 0 0 0 0 0 0 0 0 1
22 19 15 13 12 10 6 3 2 1 0 0 0 0 0 0 0 0 0 0 0 0 0 0 0 0 0 0 0 0 0 0 0 0 0 0 0 0 0 0 0 0 0
22 18 14 12 11 8 5 2 1 0 0 0 0 0 0 0 0 0 0 0 0 0 0 0 0 0 0 0 0 0 0 0 0 0 0 0 0 0 0 0 0 0 0
22 20 16 13 10 7 5 3 1 0 0 0 0 0 0 0 0 0 0 0 0 0 0 0 0 0 0 0 0 0 0 0 0 0 0 0 0 0 0 0 0 0 0
21 19 17 14 11 9 7 6 4 2 1 0 0 0 0 0 0 0 0 0 0 0 0 0 0 0 0 0 0 0 0 0 0 0 0 0 0 0 0 0 0 0 0
16 15 14 13 12 11 9 7 5 3 2 1 1 0 0 0 0 0 0 0 0 0 0 0 0 0 0 0 0 0 0 0 0 0 0 0 0 0 0 0 0 0 0
13 13 12 11 12 10 8 6 5 4 3 3 2 1 0 0 0 0 0 0 0 0 0 0 0 0 0 0 0 0 0 0 0 0 0 0 0 0 0 0 0 0 0
12 11 11 11 11 9 6 5 4 3 3 3 3 2 0 0 0 0 0 0 0 0 0 0 0 0 0 0 0 0 0 0 0 0 0 0 0 0 0 0 0 0 0
10 9 10 11 12 9 6 4 3 3 3 3 2 1 0 0 0 0 0 0 0 0 0 0 0 0 0 0 0 0 0 0 0 0 0 0 0 0 0 0 0 0 0
7 7 8 11 11 9 5 4 3 3 3 2 1 0 0 0 0 0 0 0 0 0 0 0 0 0 0 0 0 0 0 0 0 0 0 0 0 0 0 0 0 0 0
6 6 7 8 9 7 5 3 2 2 1 1 0 0 0 0 0 0 0 0 0 0 0 0 0 0 0 0 0 0 0 0 0 0 0 0 0 0 0 0 0 0 0
6 6 5 6 7 7 4 3 1 1 0 0 0 0 0 0 0 0 0 0 0 0 0 0 0 0 0 0 0 0 0 0 0 0 0 0 0 0 0 0 0 0 0
4 4 4 5 6 6 5 3 2 1 0 0 0 0 0 0 0 0 0 0 0 0 0 0 0 0 0 0 0 0 0 0 0 0 0 0 0 0 0 0 0 0 0
3 3 3 4 6 6 5 4 2 1 0 0 0 0 0 0 0 0 0 0 0 0 0 0 0 0 0 0 0 0 0 0 0 0 0 0 0 0 0 0 0 0 0

GEFSGL_con_probscp_216.txt.gz
Probability
20 21 19 15 12 10 9 8 8 7 7 7 6 5 4 4 3 2 2 5 8 8 7 6 6 5 5 6 6 6 5 5 4 3 1 0 0 0 0 0 0 0 0
25 26 24 21 17 14 12 10 9 8 8 7 7 5 4 3 1 1 1 4 6 6 5 3 3 4 5 7 7 6 5 5 4 2 0 0 0 0 0 0 0 1 1
32 30 28 25 23 20 18 15 13 11 10 9 8 6 3 1 0 0 1 2 3 2 1 1 1 3 6 7 7 7 6 6 5 2 0 0 0 1 1 0 1 2 2
36 33 30 27 26 25 24 21 17 14 13 12 10 5 2 0 0 0 1 1 1 0 0 0 0 1 3 4 5 6 6 6 5 3 1 0 1 2 2 1 1 2 3
43 39 35 32 29 28 28 24 19 16 15 13 9 4 0 0 0 0 0 0 0 0 0 0 0 0 1 1 2 3 4 4 3 2 1 1 1 3 3 1 0 1 2
52 48 42 37 35 31 28 24 19 16 14 12 8 3 1 1 0 0 0 0 0 0 0 0 0 0 0 0 0 1 1 1 1 1 1 1 2 3 3 2 1 0 1
56 51 44 41 39 35 29 26 22 17 13 10 7 4 3 2 1 0 0 1 1 0 0 0 0 0 0 0 0 0 0 0 0 1 1 1 1 2 3 3 2 1 1
53 49 44 42 40 36 32 30 25 18 14 10 7 5 5 4 2 0 1 2 2 1 0 0 0 0 0 0 0 0 0 0 0 0 0 0 0 1 2 3 3 3 2
51 48 44 41 38 35 34 32 26 19 14 11 8 6 6 5 3 1 1 2 2 1 0 0 0 0 0 0 0 0 0 0 0 0 0 0 0 0 1 2 3 3 3
52 50 46 41 35 33 33 30 25 19 14 11 9 7 7 6 3 1 0 1 1 0 0 0 0 0 0 0 0 0 0 0 0 0 0 0 0 0 0 2 3 3 3
57 53 48 41 35 32 31 27 21 17 13 11 9 8 7 5 3 1 0 0 0 0 0 0 0 0 0 0 0 0 0 0 0 0 0 0 0 0 0 1 2 3 3
62 56 48 42 35 32 30 25 18 14 13 11 10 9 7 5 2 0 0 0 0 0 0 0 0 0 0 0 0 0 0 0 0 0 0 0 0 0 0 0 1 2 2
63 57 49 43 37 33 31 26 19 14 13 12 11 10 9 6 3 1 0 0 0 0 0 0 0 0 0 0 0 0 0 0 0 0 0 0 0 0 0 0 0 1 1
58 55 49 43 38 34 30 26 20 15 13 13 13 12 11 8 4 1 0 0 0 0 0 0 0 0 0 0 0 0 0 0 0 0 0 0 0 0 0 0 0 0 0
52 50 46 42 37 30 25 22 17 12 10 10 12 12 11 8 3 1 0 0 0 0 0 0 0 0 0 0 0 0 0 0 0 0 0 0 0 0 0 0 0 0 0
46 44 42 39 33 26 21 16 11 7 5 5 6 7 6 3 1 0 0 0 0 0 0 0 0 0 0 0 0 0 0 0 0 0 0 0 0 0 0 0 0 0 0
40 37 37 34 29 23 19 14 11 7 4 2 1 1 1 0 0 0 0 0 0 0 0 1 1 1 1 0 0 0 0 0 0 0 0 0 0 0 0 0 0 0 0
31 30 30 29 26 23 20 16 14 12 9 5 2 1 0 0 0 0 0 0 0 1 1 1 2 2 2 1 0 0 0 0 0 0 0 0 0 0 0 0 0 0 0
24 24 23 22 22 21 19 17 17 17 14 10 6 3 1 1 1 1 0 0 1 2 2 1 1 2 2 1 0 0 0 0 0 0 0 0 0 0 0 0 0 0 0
21 18 17 17 18 17 16 17 18 19 17 13 9 6 4 3 3 3 1 1 1 2 2 1 0 1 1 0 0 0 0 0 0 0 0 0 0 0 0 0 0 0 0
18 15 12 14 15 15 16 18 19 19 17 15 12 8 6 5 6 5 3 2 2 2 2 1 0 0 0 0 0 0 0 0 0 0 0 0 0 0 0 0 0 0 0
14 12 11 11 13 14 14 17 17 16 14 15 14 11 7 6 6 6 5 4 2 1 1 0 0 0 0 0 0 0 0 0 0 0 0 0 0 0 0 0 0 0 0
12 12 12 12 13 12 12 12 13 12 12 13 15 13 9 7 6 6 5 3 1 1 0 0 0 0 0 0 0 0 0 0 0 0 0 0 0 0 0 0 0 0 0
11 12 13 14 14 13 12 12 11 10 10 10 12 12 9 7 6 4 3 1 0 0 0 0 0 0 0 0 0 0 0 0 0 0 0 0 0 0 0 0 0 0 0
12 13 13 14 14 14 15 14 12 10 8 7 8 8 7 5 4 3 2 1 0 0 0 0 0 0 0 0 0 0 0 0 0 0 0 0 0 0 0 0 0 0 0
13 13 13 14 15 15 15 14 11 9 7 6 6 5 4 4 3 3 1 0 0 0 0 0 0 0 0 0 0 0 0 0 0 0 0 0 0 0 0 0 0 0 0

GEFSGL_con_probscp_222.txt.gz
Probability
52 52 50 49 47 45 41 37 31 25 21 20 19 17 15 13 12 11 9 9 10 10 10 10 11 12 11 9 9 10 12 11 8 5 5 6 6 4 2 2 2 2 2
55 55 53 52 51 48 43 38 32 27 24 22 20 18 16 14 13 11 9 10 11 10 10 10 10 9 8 8 8 9 10 10 8 6 5 6 6 5 4 2 2 2 2
59 60 60 60 58 54 47 41 36 31 28 24 22 20 18 15 13 10 8 9 10 10 10 9 7 5 5 5 5 6 7 7 7 7 6 6 6 6 5 3 2 2 1
64 65 67 66 62 56 51 47 43 39 34 29 26 23 18 13 10 8 7 8 8 9 8 8 6 5 4 4 4 4 4 5 6 6 6 6 6 6 5 4 2 2 1
70 70 70 67 61 57 54 50 48 45 40 35 30 24 16 10 7 6 6 7 8 8 8 7 6 4 3 2 2 2 3 3 4 4 4 4 4 5 5 3 3 3 2
74 72 69 64 60 57 54 51 49 47 43 38 33 25 15 8 4 4 5 7 8 9 8 7 5 3 1 1 1 1 2 3 3 3 3 3 3 3 3 2 2 3 3
77 75 70 65 60 55 52 51 49 46 41 35 31 26 17 9 4 2 4 6 7 8 8 6 4 2 0 0 0 0 2 2 2 1 2 3 2 2 2 2 1 2 1
80 78 74 67 61 55 52 49 46 42 36 31 28 26 20 11 4 2 3 5 7 7 7 6 5 3 1 0 0 0 1 2 1 1 1 2 2 2 2 1 0 0 0
81 79 75 71 64 57 51 45 40 36 32 28 26 25 21 12 5 2 2 5 6 6 6 6 6 4 1 0 0 0 0 1 1 0 0 1 1 1 1 0 0 0 0
80 77 75 72 65 57 49 43 38 35 32 28 25 23 20 13 6 1 2 5 6 6 6 6 5 3 1 0 0 0 0 0 0 0 0 0 0 0 1 1 1 1 0
79 75 72 70 65 58 51 46 41 38 35 30 26 24 22 16 8 2 1 4 6 6 6 6 4 1 0 0 0 0 0 0 0 0 0 0 0 0 1 2 2 1 1
77 74 70 67 64 60 55 51 46 42 38 34 30 26 24 19 11 4 1 2 4 6 6 4 2 0 0 0 0 0 0 0 0 0 0 0 0 0 1 1 1 1 0
75 72 68 64 62 60 57 52 48 43 40 37 33 28 25 21 15 7 2 1 2 3 4 2 0 0 0 0 0 0 0 0 0 0 0 0 0 0 0 0 0 0 0
73 70 64 61 60 58 54 49 44 41 40 37 34 29 25 22 18 10 4 2 1 1 1 1 1 1 1 0 0 0 0 0 0 0 0 0 0 0 0 0 0 0 0
71 65 58 56 56 54 51 44 38 35 33 30 28 26 23 20 15 9 5 3 2 1 1 1 3 3 2 1 0 0 0 0 0 0 0 0 0 0 0 0 0 0 0
67 61 53 49 49 47 45 41 34 27 22 17 15 16 16 13 7 3 2 1 1 1 1 2 3 4 3 2 1 1 1 1 0 0 0 0 0 0 0 0 0 0 0
59 54 46 42 40 39 37 36 31 23 17 11 6 5 6 5 2 0 0 0 0 0 1 2 3 3 4 4 3 2 2 2 1 0 0 0 0 0 0 0 0 0 0
47 43 38 35 33 31 30 29 26 23 21 17 9 4 2 1 0 0 0 0 0 0 1 3 3 4 5 5 4 4 4 4 3 1 0 0 0 0 0 0 0 0 0
37 35 32 30 27 27 26 24 22 21 23 21 15 8 3 0 0 0 0 0 0 1 2 3 3 4 5 7 6 5 5 5 4 2 0 0 0 0 0 0 0 0 0
34 30 26 25 25 26 25 24 21 20 22 21 15 9 5 2 1 0 0 1 2 2 3 4 4 5 7 8 8 7 6 5 4 3 1 0 0 0 0 0 0 0 0
31 26 21 22 25 26 25 24 22 20 20 18 13 8 5 5 5 4 4 4 4 5 5 5 5 6 8 8 6 5 4 4 4 3 2 1 0 0 0 0 0 0 0
26 23 21 22 24 22 22 22 20 18 17 16 13 9 6 9 12 12 10 7 6 6 7 6 6 6 6 5 4 3 3 3 3 3 3 1 1 0 0 0 0 0 0
20 19 20 23 22 18 17 18 16 14 13 13 13 11 10 11 14 16 15 12 10 8 7 7 5 4 4 3 3 3 3 1 1 3 3 2 1 0 0 0 0 0 0
14 14 17 20 19 16 14 14 12 10 10 11 10 11 11 11 12 15 16 16 13 10 8 6 4 3 3 3 3 3 2 1 1 2 2 1 1 0 0 0 0 0 0
10 11 13 15 15 13 11 10 10 9 10 9 9 9 10 10 11 13 15 15 14 11 8 5 4 3 3 3 2 1 1 0 0 1 1 0 0 0 0 0 0 0 0
9 9 11 13 13 12 10 9 9 10 11 11 9 9 10 10 10 12 13 14 12 10 8 6 4 3 3 3 1 0 0 0 0 0 0 0 0 0 0 0 0 0 0

GEFSGL_con_probscp_228.txt.gz
Probability
30 30 30 29 25 18 12 12 12 10 10 10 7 6 5 4 4 5 5 4 3 3 1 0 0 1 1 0 0 0 0 1 3 3 3 1 0 0 0 0 0 0 0
33 32 31 30 25 18 14 14 13 10 7 7 5 4 4 3 3 4 4 3 3 3 2 1 0 1 1 0 0 0 0 1 2 3 3 2 1 0 0 0 0 0 0
40 37 34 31 26 20 16 16 13 8 5 4 3 3 3 3 3 3 3 3 3 3 2 1 0 1 1 0 0 0 0 1 1 1 2 2 1 1 0 0 0 0 0
46 41 37 34 31 25 20 17 12 7 6 5 4 3 3 3 3 3 3 3 3 3 2 1 0 0 0 0 0 0 0 0 0 0 1 1 0 0 0 0 0 0 0
50 46 41 39 37 32 27 21 15 11 10 8 5 3 3 3 3 3 3 3 3 2 1 0 0 0 0 0 0 0 0 0 0 0 0 0 0 0 0 0 0 0 0
55 52 47 45 42 37 32 27 23 19 15 10 6 4 4 3 2 2 2 2 2 1 0 0 0 0 0 0 0 0 0 0 0 0 0 0 0 0 0 0 0 0 0
58 57 54 50 45 39 35 32 29 24 19 13 8 5 4 3 1 0 0 1 1 0 0 0 0 0 0 0 0 0 0 0 0 0 0 0 0 0 0 0 0 0 0
58 58 56 52 46 39 36 34 30 27 23 18 11 6 4 3 1 0 0 0 0 0 0 0 0 0 0 0 0 0 0 0 0 0 0 0 0 0 0 0 0 0 0
56 56 54 50 45 40 37 33 29 27 25 22 16 10 6 3 2 0 0 0 0 0 0 0 0 0 0 0 0 0 0 0 0 0 0 0 0 0 0 0 0 0 0
53 52 50 47 43 39 37 32 27 25 26 25 22 16 10 5 1 0 0 0 0 0 0 0 0 0 0 0 0 0 0 0 0 0 0 0 0 0 0 0 0 0 0
51 50 47 44 40 36 33 30 26 25 27 26 23 19 14 8 3 1 0 0 0 0 0 0 0 0 0 0 0 0 0 0 0 0 0 0 0 0 0 0 0 0 0
50 50 47 43 39 33 30 29 27 26 25 24 22 19 16 12 6 2 0 0 0 1 1 1 1 0 0 0 0 0 0 0 0 0 0 0 0 0 0 0 0 0 0
49 50 47 43 39 34 30 29 27 25 23 22 20 19 18 15 10 4 1 1 0 1 1 2 1 0 0 0 0 0 0 0 0 0 0 0 0 0 0 0 0 0 0
47 46 44 41 38 34 31 28 26 23 21 20 19 18 18 16 13 7 4 2 1 0 1 1 1 0 0 0 0 0 0 0 0 0 0 0 0 0 0 0 0 0 0
43 41 40 38 35 31 27 25 22 20 17 15 15 16 16 15 13 9 5 2 1 0 0 0 0 0 0 0 0 0 0 0 0 0 0 0 0 0 0 0 0 0 0
39 38 36 35 32 28 24 20 17 14 9 7 7 9 11 10 8 5 2 1 0 0 1 1 1 1 0 0 0 0 0 0 0 0 0 0 0 0 0 0 0 0 0
33 33 32 29 28 26 22 18 13 9 5 2 2 3 4 4 3 1 0 0 0 1 2 2 1 0 0 0 0 0 0 0 0 0 0 0 0 0 0 0 0 0 0
24 26 26 25 24 22 20 17 12 9 7 4 1 0 1 1 0 0 0 0 1 1 2 1 0 0 0 0 0 0 0 0 0 0 0 0 0 0 0 0 0 0 0
18 20 22 23 21 19 17 16 13 10 8 6 3 1 0 0 0 0 0 0 1 2 2 1 0 0 0 0 0 0 0 1 1 1 1 1 1 0 0 0 0 0 0
17 17 18 19 19 17 16 16 14 11 9 7 5 3 1 0 0 0 0 0 1 1 1 0 0 0 0 0 0 0 1 2 2 2 2 2 2 1 0 0 0 0 0
18 17 16 16 17 16 16 16 15 12 10 8 6 3 1 0 0 0 0 0 0 0 0 0 0 0 0 1 1 1 2 3 3 3 3 3 2 1 0 0 0 0 0
19 17 16 16 15 15 15 16 16 14 12 9 7 4 1 0 0 0 0 0 0 0 0 0 0 0 1 2 2 3 3 3 3 3 2 1 1 0 0 0 0 0 0
17 16 16 15 15 14 15 16 16 15 13 11 9 6 3 2 1 1 1 1 1 2 1 1 1 1 2 3 3 3 3 3 3 2 1 0 0 0 0 0 0 0 0
14 15 14 13 13 13 14 14 15 16 15 14 11 8 5 4 3 2 2 2 3 3 3 2 2 3 3 3 3 3 3 3 2 1 0 0 0 0 0 0 0 0 0
12 12 12 11 11 11 11 12 13 14 14 14 12 8 5 3 3 2 2 2 3 3 3 3 3 3 3 3 3 3 2 1 1 0 0 0 0 0 0 0 0 0 0
11 11 10 10 10 10 10 10 11 13 12 12 12 8 4 1 1 1 1 1 2 3 3 3 3 3 3 3 3 2 1 0 0 0 0 0 0 0 0 0 0 0 0

GEFSGL_con_probscp_234.txt.gz
Probability
11 11 12 15 15 13 12 11 9 7 6 5 2 0 0 1 1 2 3 3 3 3 3 3 3 2 2 2 1 0 0 0 0 0 0 0 0 0 0 0 0 0 0
15 15 17 19 19 17 15 13 9 7 6 5 3 2 1 2 2 3 3 3 3 3 3 3 3 2 1 1 0 0 0 0 0 0 0 0 0 0 0 0 0 0 0
21 21 22 22 21 20 18 15 10 7 5 5 4 3 3 3 3 3 3 3 3 3 3 3 3 2 1 0 1 1 1 0 0 0 0 0 0 0 0 0 0 0 0
26 26 25 24 21 20 19 16 13 8 5 5 5 4 4 3 3 3 3 3 3 2 3 3 3 2 1 1 2 2 2 1 0 0 0 0 0 0 0 0 0 0 0
30 30 29 26 22 18 18 17 14 9 5 5 6 6 4 3 3 3 3 3 3 2 3 3 3 3 1 1 2 2 2 1 0 0 0 0 0 0 0 0 0 0 0
33 32 31 28 23 19 17 17 14 11 8 8 8 8 5 3 2 3 3 3 3 3 3 3 3 3 2 1 1 1 1 0 0 0 0 0 0 0 0 0 0 0 0
35 34 32 28 24 21 18 16 14 13 12 11 11 9 6 3 2 2 2 3 3 3 3 3 3 2 1 0 0 0 0 0 0 0 0 0 0 0 0 0 0 0 0
37 36 33 29 25 23 21 17 15 15 15 13 13 12 8 5 3 2 1 1 2 3 3 3 2 1 0 0 0 0 0 0 0 0 0 0 0 0 0 0 0 0 0
37 37 35 31 26 24 23 19 17 16 14 14 14 13 10 7 4 1 0 1 1 1 1 2 2 2 1 0 0 0 0 0 0 0 0 0 0 0 0 0 0 0 0
38 36 34 32 29 26 25 22 19 17 13 12 13 12 10 8 5 2 0 0 1 0 1 1 2 1 1 0 0 0 0 0 0 0 0 0 0 0 0 0 0 0 0
36 34 32 31 30 28 26 22 20 19 16 13 12 11 10 9 7 3 0 0 1 0 0 1 1 1 0 0 0 0 0 0 0 0 0 0 0 0 0 0 0 0 0
33 31 30 29 28 28 26 21 20 21 19 15 12 11 10 10 8 5 1 0 0 0 0 0 1 0 0 0 0 0 0 0 1 2 1 1 0 0 0 0 0 0 0
28 27 26 27 28 29 26 22 20 21 19 16 13 11 10 10 10 7 4 1 0 0 0 0 0 0 0 0 0 0 0 1 2 3 2 1 0 0 0 0 0 0 0
25 25 24 26 30 30 26 23 21 20 19 16 13 11 10 10 10 8 6 3 2 0 0 0 1 1 0 0 0 0 0 1 2 3 3 1 0 0 0 0 0 0 0
24 24 23 25 30 31 27 22 18 15 15 13 10 8 8 8 7 5 4 4 3 1 0 0 1 2 1 0 0 0 0 1 2 3 2 1 0 0 0 0 0 0 0
22 22 21 23 26 27 25 19 12 8 6 6 5 4 5 5 3 2 1 1 1 0 0 0 1 1 1 0 0 0 0 1 2 3 2 1 0 0 0 0 0 0 0
19 19 19 20 21 22 22 20 15 8 4 2 1 1 2 2 1 0 0 0 0 0 0 0 0 0 0 0 0 0 0 1 1 2 2 1 0 0 0 0 0 0 0
15 15 16 17 18 19 22 24 22 17 10 5 2 1 1 1 0 0 0 0 0 0 0 0 0 0 0 0 0 0 0 0 0 1 1 0 0 0 0 0 0 0 0
9 11 13 14 15 18 21 24 24 21 15 9 6 3 1 1 1 0 0 0 0 0 0 0 0 0 0 0 0 0 0 0 0 0 0 0 0 0 0 0 0 0 0
6 7 9 10 12 15 19 21 21 19 15 11 8 6 4 3 3 1 1 1 0 0 0 0 0 0 0 0 0 0 0 0 0 0 1 1 1 0 0 0 0 0 0
4 4 5 7 10 13 16 17 18 16 14 12 10 7 6 6 5 4 3 2 1 1 0 0 0 0 0 0 0 0 0 1 1 1 2 2 2 1 1 1 1 1 1
3 3 4 6 8 11 13 15 16 15 14 12 11 9 7 6 6 6 5 4 3 2 1 0 0 0 1 0 0 0 1 2 2 3 3 3 3 3 2 2 2 2 2
3 3 4 6 8 9 12 14 16 15 12 11 11 10 8 7 6 6 6 5 4 2 1 0 0 0 0 0 0 1 2 3 3 3 3 3 3 3 3 3 3 3 3
3 3 4 6 8 9 11 13 14 13 11 10 11 10 9 7 7 6 6 6 4 2 0 0 0 0 1 1 1 1 2 2 2 3 3 3 3 3 3 3 2 2 2
2 2 3 5 7 8 10 12 13 12 10 10 10 10 9 8 7 6 5 5 3 1 0 0 0 0 1 2 2 2 1 1 1 1 2 3 3 3 2 1 1 1 1
1 1 1 3 6 8 10 12 12 12 10 10 10 10 9 8 6 5 4 2 1 0 0 0 0 0 1 3 3 2 1 0 0 0 1 3 3 2 1 0 0 0 0

GEFSGL_con_probscp_240.txt.gz
Probability
28 32 35 36 36 35 31 28 27 27 26 26 26 23 19 16 14 13 10 9 10 10 9 9 10 10 10 11 11 11 11 11 8 5 2 1 2 3 2 1 0 0 0
27 32 36 39 39 36 33 29 29 30 28 27 26 25 20 16 15 13 10 9 10 10 10 10 10 9 9 10 10 11 12 12 10 6 2 1 2 3 3 2 1 0 0
28 33 40 43 43 39 35 32 32 32 30 28 27 25 22 19 17 15 13 12 11 11 11 10 9 8 8 8 9 11 11 11 10 7 2 1 2 3 3 2 1 0 0
32 36 42 46 45 42 38 36 36 34 30 29 30 27 24 22 21 19 18 17 15 14 12 11 9 8 8 7 8 9 9 8 7 6 3 1 1 2 2 1 0 0 0
38 40 43 45 47 46 44 42 40 37 33 33 34 31 27 25 23 22 21 20 18 16 14 13 12 10 7 6 6 6 7 6 5 5 5 3 2 2 2 0 0 0 0
44 43 43 45 48 48 47 45 45 43 39 37 36 34 30 27 22 17 17 19 20 19 18 16 15 12 8 6 4 3 4 4 5 5 6 6 5 4 2 1 0 0 0
49 46 47 48 48 48 47 48 49 46 43 39 37 34 32 28 19 11 9 14 20 23 21 19 18 15 12 10 7 4 3 3 3 5 7 9 9 7 5 3 1 0 0
52 50 50 51 49 47 47 48 47 45 42 39 36 34 33 26 15 6 5 12 20 24 24 23 22 20 16 13 12 10 8 5 3 3 5 7 7 7 6 4 2 0 0
54 53 53 52 49 45 44 44 43 42 41 37 34 33 32 25 13 4 4 11 19 24 25 25 22 19 14 12 13 15 13 9 6 4 3 3 3 3 3 3 2 0 0
52 52 53 52 48 44 40 39 39 39 39 36 33 32 30 23 13 4 4 11 19 23 25 24 18 12 9 7 10 14 15 13 10 8 5 3 2 2 3 3 2 1 1
47 46 47 47 45 42 39 37 37 36 36 35 34 31 27 20 12 5 4 9 16 21 24 23 17 8 3 3 4 8 11 11 11 11 9 7 6 6 5 4 4 4 4
42 40 40 40 39 39 39 38 36 34 32 32 33 30 25 19 12 6 3 4 10 17 21 19 14 6 1 0 1 2 4 5 7 9 10 10 9 8 7 7 7 7 7
37 36 34 33 34 36 38 38 36 31 27 27 29 30 27 23 16 8 4 3 4 10 14 12 6 2 0 0 0 0 0 1 3 6 8 9 9 9 9 8 8 7 8
32 33 32 31 33 36 39 39 35 29 25 24 26 28 30 27 18 11 8 7 5 6 7 6 4 3 2 2 2 2 2 2 3 5 7 8 10 11 10 9 7 7 7
30 31 30 29 31 34 37 36 30 24 21 20 22 25 27 23 15 9 8 7 6 5 5 6 6 6 6 6 5 5 5 4 5 6 7 9 11 12 11 9 7 6 6
31 29 26 25 25 28 31 29 22 16 12 11 14 16 16 12 7 4 3 3 3 3 3 5 7 7 7 6 6 6 6 7 8 8 9 9 10 11 11 10 7 5 5
28 25 23 22 21 23 26 25 20 13 9 7 5 5 5 3 2 1 0 0 0 0 2 5 7 8 7 5 4 4 5 7 9 11 10 10 10 10 11 10 8 6 5
22 21 20 20 19 20 22 23 22 19 18 15 8 3 1 0 0 0 0 1 1 2 3 6 8 8 8 6 4 4 4 5 9 11 12 11 10 10 10 10 9 7 6
19 18 18 18 17 17 17 18 19 22 24 24 19 10 3 1 1 1 1 3 4 5 5 6 7 7 6 6 5 4 4 5 8 10 11 11 10 10 10 10 9 9 7
15 14 14 15 15 15 14 14 16 18 20 23 23 17 8 4 3 3 4 5 6 6 6 6 6 5 4 4 4 4 5 6 7 8 9 9 9 9 9 9 9 10 10
11 10 10 12 13 13 12 12 12 13 14 16 19 17 10 6 6 6 6 7 7 7 7 7 6 4 3 3 4 5 6 6 7 8 8 8 9 8 8 8 9 10 10
9 9 9 10 10 10 10 9 8 8 9 11 15 14 10 9 10 10 10 9 8 8 9 7 5 4 3 3 4 5 6 6 7 8 8 9 9 9 8 8 8 9 9
7 8 9 9 9 8 7 7 6 6 6 8 11 13 13 14 15 15 13 11 9 10 10 8 6 5 4 3 3 4 3 4 6 7 7 8 9 9 9 8 7 7 7
6 7 7 8 8 7 6 6 6 5 5 6 9 13 16 17 18 18 15 11 9 9 9 8 7 5 3 3 3 3 1 2 3 4 5 6 7 7 7 6 6 5 5
6 6 6 6 6 6 6 6 5 4 4 5 8 13 16 18 18 17 15 12 9 8 8 8 7 5 4 3 3 2 1 0 1 1 2 4 5 5 4 4 4 4 4
6 6 6 5 4 4 4 4 4 4 3 5 9 14 16 17 17 16 16 14 10 8 7 7 6 5 4 4 3 2 1 0 0 0 1 3 4 4 4 3 3 3 3